RH
20 18 18 13 13 12 10 12 11 15 25 25 26 26 30 38 37 39 36 39 40 42 54 59 59 57 55 61 68 76 80 79 75 72 62 52 52 53 45 39 44 43 42 42
18 20 21 20 15 14 13 13 18 23 26 25 26 32 33 35 40 39 39 39 41 53 58 64 58 63 70 73 73 72 67 62 53 46 41 41 44 41 38 39 44 40 41 38
20 22 22 20 18 17 20 18 23 19 26 26 25 30 35 41 42 45 46 42 48 55 59 59 60 65 69 70 67 57 54 52 41 42 43 44 45 42 38 38 36 39 40 36
23 22 21 19 21 19 21 22 21 25 22 19 23 18 34 41 46 46 50 51 64 60 55 53 55 58 61 62 58 45 42 40 43 42 39 41 36 39 41 39 37 34 40 37
26 23 22 22 25 24 26 25 22 22 20 23 23 19 32 42 46 49 54 54 55 49 45 44 45 48 50 57 48 44 42 40 41 42 43 41 42 39 36 35 37 38 37 39
24 22 22 24 26 24 25 26 25 24 24 30 21 24 16 33 33 46 50 51 51 44 38 36 38 39 41 43 46 45 40 40 40 39 40 41 39 32 28 32 32 29 31 33
23 24 21 23 25 27 26 25 32 42 39 34 31 28 17 22 32 38 46 45 45 41 38 38 38 35 39 44 46 43 39 40 39 37 33 34 35 36 32 33 32 36 30 30
23 31 22 24 25 22 25 24 32 30 34 28 32 29 20 26 27 33 36 37 39 38 38 36 35 37 40 44 43 40 38 35 32 32 34 40 35 30 30 31 28 29 31 31
26 26 24 26 24 24 29 28 30 41 55 50 23 26 25 31 29 35 36 36 37 36 38 36 37 40 42 42 44 42 32 30 35 52 60 47 40 30 28 30 33 29 32 28
28 33 26 27 25 27 27 26 35 36 50 34 21 25 18 37 34 36 38 37 35 33 35 38 39 44 41 41 42 38 36 38 48 49 41 33 28 28 30 32 31 32 33 34
24 27 34 30 28 26 31 30 30 28 37 30 28 15 24 27 30 35 37 35 34 35 37 40 40 42 41 39 36 43 42 48 46 37 32 31 28 28 30 30 31 33 38 37
30 32 42 31 29 29 27 26 24 32 33 44 44 22 23 31 30 29 33 34 33 35 37 39 41 41 38 37 38 44 42 45 42 30 28 26 27 26 28 30 33 37 40 39
33 37 43 38 32 29 30 28 26 34 39 39 65 21 23 30 32 30 32 32 35 39 40 41 42 39 36 36 42 36 47 44 30 24 23 24 26 28 30 32 37 39 41 40
46 36 34 38 27 26 34 33 26 25 40 28 31 15 19 22 27 26 32 32 36 42 42 42 41 38 36 37 36 40 44 34 27 23 22 24 30 31 34 36 40 42 42 43
38 38 36 32 33 32 28 28 29 26 25 36 18 20 12 15 18 21 28 33 37 41 42 43 41 38 37 39 37 35 36 34 28 25 24 29 32 34 36 44 44 44 46 44
42 45 43 44 40 37 36 27 25 26 25 27 22 22 16 18 21 26 35 37 40 41 41 41 40 37 35 37 38 37 35 30 27 26 29 30 34 35 39 44 46 43 45 43
46 51 47 42 43 41 72 39 27 24 26 29 32 23 18 26 27 26 30 37 39 39 40 41 39 36 34 33 45 38 30 28 28 28 30 31 36 37 41 38 38 40 44 48
53 48 59 68 70 82 21 25 24 26 23 20 22 18 22 22 29 34 32 31 38 39 40 40 37 35 33 35 33 30 24 26 29 30 31 31 36 39 38 40 40 45 46 47
39 49 76 92 44 28 14 23 28 33 22 20 21 20 20 37 41 34 37 37 38 40 40 38 35 34 33 31 28 25 25 26 29 29 29 33 40 42 38 39 44 46 46 47
43 46 56 73 89 89 28 30 34 33 36 24 29 32 37 41 50 21 35 42 44 41 38 37 33 32 30 26 25 27 28 30 27 32 35 38 40 40 40 42 46 47 47 45
83 86 89 72 92 47 25 25 36 43 34 32 36 36 43 44 30 38 39 44 41 39 38 34 30 27 27 29 31 31 29 27 31 39 40 37 38 41 43 46 48 48 48 50
60 80 92 77 97 80 30 38 46 37 36 37 35 37 46 40 44 46 44 43 42 40 34 29 29 29 35 35 31 25 24 32 40 40 39 41 43 43 42 49 50 50 51 57
54 47 51 46 44 33 34 34 33 40 41 39 41 34 42 46 44 44 47 46 40 32 29 29 33 43 41 32 28 26 35 48 43 46 46 46 47 47 44 49 54 58 52 57
46 44 54 50 29 32 33 32 31 31 35 33 32 35 39 45 41 46 46 40 34 30 32 41 59 51 43 36 41 43 46 47 48 50 48 47 50 50 48 47 58 59 58 62
44 48 48 52 39 33 30 31 34 34 37 40 38 41 46 47 46 47 43 38 36 46 63 60 49 37 34 41 44 44 48 50 48 48 51 56 55 54 50 48 56 59 55 61
44 43 60 55 42 43 37 36 40 45 45 48 52 51 52 54 53 46 41 50 68 67 62 50 39 39 40 52 48 49 49 51 60 62 59 60 62 58 59 57 56 76 77 79
Wind_Speed
5 5 8 6 8 3 3 6 11 8 5 4 5 7 5 5 8 9 10 11 10 9 7 6 8 9 10 12 14 16 13 12 7 8 8 7 7 5 5 4 6 5 5 5
7 0 4 3 4 5 6 9 8 5 4 4 8 5 5 4 5 6 9 10 10 8 8 8 9 9 11 13 13 14 13 11 9 7 7 6 6 4 5 5 5 5 5 5
4 7 2 5 8 9 5 5 10 7 7 2 9 7 7 5 5 5 5 5 6 8 9 10 11 12 13 14 14 13 11 11 9 9 6 5 6 6 5 4 3 5 3 2
3 3 8 8 6 4 7 1 9 13 12 7 8 6 9 6 6 6 8 9 10 11 11 11 12 12 12 11 10 11 12 11 8 5 5 3 3 4 4 3 3 2 1 3
4 3 6 5 3 2 5 6 8 5 4 5 10 9 11 9 9 11 12 13 13 12 13 13 12 11 11 10 11 10 10 9 8 8 8 6 7 5 4 2 2 3 4 6
4 2 3 5 5 1 11 8 5 3 3 7 2 7 6 9 13 15 15 14 14 14 14 13 11 12 12 10 10 10 11 11 11 9 9 9 7 5 3 3 4 5 6 6
7 4 4 3 9 5 5 9 4 4 5 7 3 7 12 1 5 17 19 17 16 15 14 13 14 13 12 12 10 10 12 12 10 9 8 8 7 6 4 5 5 7 7 8
9 7 4 1 3 3 7 6 4 5 4 2 4 7 1 2 5 12 17 17 17 17 14 15 14 13 12 12 12 11 11 11 10 8 7 5 4 3 3 5 6 6 6 7
5 4 5 3 1 3 6 6 3 3 2 3 5 4 9 4 9 14 18 18 19 18 16 15 14 12 12 12 12 10 10 10 9 6 4 4 4 3 4 5 5 4 6 7
4 5 3 5 3 7 4 9 4 3 4 5 4 6 2 8 13 15 19 19 19 18 17 14 13 12 12 12 11 9 8 9 7 5 5 4 3 1 3 4 5 6 7 10
5 4 6 3 6 5 5 4 1 1 3 3 3 1 4 1 10 16 19 19 19 18 16 14 12 12 12 12 11 9 8 6 6 6 5 5 3 1 4 5 5 6 8 11
2 1 4 5 3 2 3 4 7 4 5 1 3 4 4 1 4 11 16 17 17 15 15 15 14 14 14 12 11 8 7 6 6 8 6 5 2 4 6 6 6 6 9 10
6 5 5 6 5 5 8 8 4 4 1 7 3 2 4 3 5 9 12 15 14 15 16 15 15 15 14 13 10 10 9 8 10 7 7 5 6 6 7 7 7 7 9 11
3 4 6 7 2 1 7 11 11 10 4 4 9 9 7 7 7 8 12 15 16 16 17 16 16 16 14 12 12 10 9 9 8 8 6 6 7 7 7 7 7 8 9 11
4 6 4 1 1 3 4 7 13 16 13 8 9 11 9 6 8 9 8 12 15 16 18 18 17 15 14 13 12 11 8 9 8 6 6 7 6 7 7 7 7 8 10 10
2 3 2 3 2 3 7 10 12 15 15 15 19 20 15 8 7 8 10 12 15 16 17 18 18 16 15 14 13 9 10 9 7 6 7 6 6 7 7 7 8 10 10 10
4 5 4 2 3 3 7 16 17 12 11 13 14 16 6 5 8 9 10 13 14 16 17 18 18 15 13 14 9 10 10 8 6 6 5 5 6 7 7 8 10 10 10 9
6 5 1 1 2 4 1 1 3 12 16 15 18 16 9 7 2 5 7 10 14 15 16 17 15 13 12 10 10 9 9 7 6 5 5 6 6 7 8 10 10 10 9 9
1 4 3 3 4 7 12 4 3 5 6 4 12 12 7 4 4 11 9 10 11 12 13 14 12 12 10 10 10 9 7 6 5 5 6 6 6 8 10 11 10 9 8 8
5 3 2 3 3 4 4 4 1 3 6 5 4 4 6 7 5 5 5 8 9 10 12 11 10 11 11 9 9 7 6 4 5 5 6 6 8 9 10 11 9 7 7 7
2 0 4 4 4 6 1 2 3 4 4 5 4 4 8 7 7 3 2 8 10 12 13 14 14 12 12 10 6 6 4 5 3 5 6 8 8 9 10 9 7 7 8 6
6 6 4 3 3 5 5 6 3 5 4 6 7 6 9 10 4 4 4 10 12 13 11 11 12 13 10 8 6 5 5 1 4 6 8 8 7 7 7 9 8 8 7 6
4 4 1 7 2 4 7 6 3 5 8 10 8 8 8 11 9 7 6 7 9 12 12 11 7 8 5 4 2 4 2 2 5 7 8 8 8 8 7 8 9 8 7 6
5 4 3 2 2 7 8 10 11 10 11 12 12 12 11 13 11 9 8 10 12 12 13 13 10 9 8 5 1 4 1 5 6 9 9 8 8 7 9 6 6 7 7 6
3 7 5 5 11 8 8 5 5 8 9 11 11 9 10 10 10 7 7 9 10 9 8 6 6 5 4 4 3 3 4 6 8 8 7 7 7 8 9 7 5 7 7 5
4 0 3 4 9 6 8 9 13 10 11 11 10 9 6 6 1 6 9 9 10 9 5 5 3 2 1 3 3 4 5 5 6 7 6 5 7 7 7 8 7 10 9 5
Wind_Direction
204 217 218 175 225 343 165 161 151 115 111 129 125 125 104 149 171 176 181 178 176 178 137 153 156 154 146 149 154 157 151 169 182 160 153 167 156 131 138 111 76 82 85 85
187 282 58 83 186 166 163 158 138 115 125 240 167 121 90 122 152 198 188 190 181 159 160 165 154 146 150 154 153 162 172 185 187 153 153 157 155 141 110 97 104 100 89 72
316 119 154 170 160 156 102 190 167 168 155 153 180 174 173 132 150 163 192 181 165 174 163 164 161 162 162 168 171 174 161 164 150 128 138 127 119 135 154 141 106 80 82 53
98 84 163 133 107 282 151 83 159 148 185 199 210 224 171 166 158 171 160 164 157 169 162 151 151 149 157 158 158 140 137 134 127 157 113 107 72 113 76 102 98 108 355 334
88 112 130 131 66 284 89 169 144 151 202 223 189 253 111 170 188 171 160 151 155 155 150 144 138 131 131 138 140 131 129 121 119 111 120 122 115 116 106 86 4 333 306 306
107 89 10 75 77 177 137 144 127 161 238 245 231 270 203 185 208 171 166 166 161 158 150 140 132 140 134 137 139 139 130 120 117 113 106 100 100 88 57 37 327 329 323 313
157 92 107 164 116 142 230 191 200 219 217 254 94 248 267 250 204 182 173 171 170 165 161 158 160 158 151 150 147 140 134 126 121 112 101 93 82 64 32 355 344 324 322 325
181 169 168 94 290 202 198 250 238 252 228 261 183 238 94 147 197 186 178 173 172 174 171 172 169 163 159 151 152 149 142 130 120 109 102 96 76 41 6 5 336 323 329 330
170 121 129 33 158 271 145 216 33 133 71 257 247 206 213 193 188 190 182 178 181 182 178 178 171 170 163 159 155 151 142 131 118 100 148 127 99 57 11 345 314 339 328 327
152 147 179 144 199 73 296 129 181 214 230 243 189 262 271 181 187 192 189 191 190 188 183 179 179 171 165 158 151 149 127 134 141 152 135 133 119 68 341 302 314 321 328 331
166 255 144 199 214 193 153 184 72 316 297 282 301 121 66 38 194 197 200 197 196 193 189 184 179 170 164 163 155 143 147 134 145 156 170 162 163 286 300 295 306 322 325 327
118 144 177 197 110 313 285 219 205 241 177 228 325 287 141 154 216 207 206 204 204 199 192 186 179 173 170 170 158 148 147 149 170 205 197 192 239 290 285 301 301 306 313 322
171 199 171 168 174 189 227 195 193 115 115 209 188 247 167 186 213 210 219 202 205 200 193 187 182 182 177 175 165 166 170 183 204 200 214 237 275 282 298 292 284 295 311 318
199 192 247 243 51 205 195 196 197 203 202 204 238 273 198 219 223 214 214 209 202 199 192 191 187 188 181 178 177 181 184 199 193 215 242 276 288 292 287 284 283 296 310 308
240 236 213 220 136 226 251 218 203 215 231 225 268 257 279 262 247 239 219 209 204 199 197 194 194 189 183 182 179 195 189 192 200 225 261 286 289 285 281 276 283 301 303 301
160 193 189 233 215 281 268 248 236 233 247 253 263 271 291 263 264 235 210 206 211 208 202 198 198 191 187 181 193 179 207 187 196 234 264 294 286 285 282 280 292 300 297 296
160 154 160 239 352 282 283 243 230 228 230 241 253 261 293 209 229 238 227 217 220 213 204 199 198 193 187 181 176 195 187 176 206 247 270 274 285 285 283 288 293 296 298 302
138 129 85 145 219 223 18 173 276 248 255 247 259 272 271 291 294 274 252 239 225 217 206 202 197 191 184 183 183 171 172 188 217 246 272 285 284 284 289 287 289 296 295 301
346 140 122 179 224 319 275 188 209 205 289 327 269 278 247 256 279 251 227 231 236 217 207 201 193 179 167 169 166 172 179 197 220 265 279 278 281 285 289 290 291 288 294 297
77 55 243 150 220 246 44 66 188 222 271 20 307 292 198 199 249 315 182 208 210 203 196 185 162 154 159 155 166 179 184 223 262 269 272 279 284 287 291 294 285 283 286 283
122 21 214 175 242 283 278 243 172 244 27 2 306 238 195 211 263 26 173 180 191 185 172 164 161 157 145 144 145 198 198 248 269 266 279 282 286 295 298 290 274 281 289 284
181 165 182 137 207 266 155 149 240 12 335 323 315 269 235 255 323 296 259 187 181 177 161 164 150 143 139 136 196 209 234 211 261 282 284 283 287 296 295 282 273 282 278 267
223 228 232 217 243 100 197 290 323 325 298 300 294 303 259 261 261 249 218 187 169 157 140 128 118 94 93 172 207 270 17 259 286 288 283 283 279 282 290 290 286 285 273 259
217 176 232 243 188 249 253 263 275 281 278 291 290 282 280 268 269 238 193 168 160 156 144 123 112 167 173 177 185 261 263 280 278 279 285 285 282 299 297 292 278 275 266 261
31 164 200 252 278 275 258 275 308 311 307 297 299 293 298 292 280 244 184 160 129 111 90 83 159 218 178 155 210 234 262 275 281 286 286 288 290 291 296 295 285 268 262 264
191 332 215 265 13 325 309 339 329 312 327 336 327 320 347 312 300 133 129 118 118 98 104 157 187 179 266 262 262 272 281 284 285 283 281 288 297 297 303 297 294 215 239 231